Tracking 19638 objects as of 19-Apr-2019
HD Live streaming from Space Station
objects crossing your sky now

THORAD DELTA 1 DEB

Track THORAD DELTA 1 DEB now!
10-day predictions


NORAD ID: 8563
Int'l Code: 1974-089DA
Perigee: 1,395.9 km
Apogee: 1,523.2 km
Inclination: 101.2 °
Period: 114.9 minutes
Semi major axis: 7830 km
RCS: 0.0458 m2 (small)
Launch date: November 15, 1974
Source: United States (US)
Launch site: AIR FORCE WESTERN TEST RANGE (AFWTR)

Note: This is SATELLITE DEBRIS
aabbcc
Your satellite tracking list
Your tracking list is empty




NASA's NSSDC Master Catalog

Two Line Element Set (TLE):
1  8563U 74089DA  19108.43469919 +.00000049 +00000-0 +57124-3 0  9999
2  8563 101.2082 284.7454 0081264 286.7193 128.5107 12.52902107028316
Source of the keplerian elements: AFSPC